Weather History for Gainesville, GA

Change the Weather History Date:

Wednesday, September 10, 2014

  Actual Average Record
Temperature  
Mean Temperature 75 °F 74 °F  
Max Temperature 83 °F 83 °F 96 °F (1939)
Min Temperature 67 °F 65 °F 48 °F (1969)
Degree Days  
Heating Degree Days 0 0  
Month to date heating degree days 0 0  
Since 1 July heating degree days 0 0  
Cooling Degree Days 10 9  
Month to date cooling degree days 133 100  
Year to date cooling degree days 1480 1426  
Growing Degree Days 25 (Base 50)    
Moisture  
Dew Point 67 °F    
Average Humidity 76    
Maximum Humidity 93    
Minimum Humidity 58    
Precipitation  
Precipitation 0.00 in 0.16 in 0.93 in (1957)
Month to date precipitation 3.09 1.44  
Year to date precipitation 31.88 37.69  
Sea Level Pressure  
Sea Level Pressure 30.10 in    
Wind  
Wind Speed 6 mph (ESE)    
Max Wind Speed 10 mph    
Max Gust Speed 14 mph    
Visibility 10 miles    
Events      
T = Trace of Precipitation, MM = Missing Value Source: NWS Daily Summary

Daily Weather History Graph

Daily Weather History Graph

Search for Another Location

Airport:

Trip Planner

Search our weather history database for the weather conditions in past years. The results will help you decide how hot, cold, wet, or windy it might be!

Date:

Astronomy

Sep. 10, 2014 Rise Set
Actual Time 7:14 AM EDT 7:48 PM EDT
Civil Twilight 6:49 AM EDT 8:14 PM EDT
Nautical Twilight 6:19 AM EDT 8:43 PM EDT
Astronomical Twilight 5:49 AM EDT 9:14 PM EDT
Moon 8:54 PM EDT (9/10) 8:55 AM EDT (9/10)
Length of Visible Light 13h 24m
Length of Day
12h 34m
Waning Gibbous, 96% of the Moon is Illuminated
Sep 10
Waning Gibbous
Sep 15
Last Quarter
Sep 24
New
Oct 1
First Quarter
Oct 8
Full

Hourly Weather History & Observations

Time (EDT) Temp. Heat Index Dew Point Humidity Pressure Visibility Wind Dir Wind Speed Gust Speed Precip Events Conditions
12:53 AM 70.0 °F - 66.0 °F 87% 30.10 in 10.0 mi ENE 6.9 mph - N/A   Mostly Cloudy
1:02 AM 69.1 °F - 66.0 °F 90% 30.14 in 10.0 mi ENE 5.8 mph - N/A   Scattered Clouds
1:53 AM 69.1 °F - 66.0 °F 90% 30.09 in 10.0 mi East 5.8 mph - N/A   Scattered Clouds
2:00 AM 69.1 °F - 66.0 °F 90% 30.13 in 10.0 mi East 5.8 mph - N/A   Mostly Cloudy
2:18 AM 68.0 °F - 66.0 °F 93% 30.12 in 10.0 mi East 5.8 mph - N/A   Scattered Clouds
2:53 AM 68.0 °F - 64.9 °F 90% 30.08 in 10.0 mi East 6.9 mph - N/A   Clear
3:31 AM 68.0 °F - 66.0 °F 93% 30.12 in 10.0 mi ENE 4.6 mph - N/A   Mostly Cloudy
3:45 AM 68.0 °F - 66.0 °F 93% 30.11 in 10.0 mi East 5.8 mph - N/A   Overcast
3:53 AM 68.0 °F - 66.0 °F 93% 30.06 in 10.0 mi East 6.9 mph - N/A   Mostly Cloudy
4:46 AM 69.1 °F - 66.0 °F 90% 30.11 in 10.0 mi ENE 4.6 mph - N/A   Overcast
4:53 AM 69.1 °F - 66.0 °F 90% 30.07 in 10.0 mi ENE 5.8 mph - N/A   Overcast
5:08 AM 69.1 °F - 66.0 °F 90% 30.12 in 10.0 mi East 5.8 mph - N/A   Overcast
5:31 AM 69.1 °F - 66.0 °F 90% 30.12 in 10.0 mi East 6.9 mph - N/A   Overcast
6:06 AM 69.1 °F - 66.0 °F 90% 30.13 in 10.0 mi East 4.6 mph - N/A   Overcast
6:33 AM 69.1 °F - 66.0 °F 90% 30.13 in 10.0 mi East 4.6 mph - N/A   Overcast
6:53 AM 69.1 °F - 66.0 °F 90% 30.09 in 10.0 mi East 5.8 mph - N/A   Overcast
7:53 AM 69.1 °F - 66.0 °F 90% 30.10 in 10.0 mi East 6.9 mph - N/A   Overcast
8:53 AM 70.0 °F - 66.0 °F 87% 30.12 in 10.0 mi East 5.8 mph - N/A   Overcast
9:11 AM 71.1 °F - 66.9 °F 87% 30.16 in 10.0 mi East 6.9 mph - N/A   Overcast
9:53 AM 72.0 °F - 66.9 °F 84% 30.13 in 10.0 mi SE 5.8 mph - N/A   Overcast
10:19 AM 73.0 °F - 66.9 °F 81% 30.17 in 10.0 mi SE 6.9 mph - N/A   Overcast
10:31 AM 73.9 °F - 66.9 °F 79% 30.17 in 10.0 mi Variable 5.8 mph - N/A   Overcast
10:53 AM 73.9 °F - 66.0 °F 76% 30.13 in 10.0 mi Variable 4.6 mph - N/A   Mostly Cloudy
11:53 AM 77.0 °F - 66.9 °F 71% 30.12 in 10.0 mi SE 6.9 mph - N/A   Overcast
12:39 PM 77.0 °F - 66.9 °F 71% 30.16 in 10.0 mi SE 5.8 mph - N/A   Overcast
12:53 PM 78.1 °F - 66.9 °F 68% 30.11 in 10.0 mi East 8.1 mph - N/A   Mostly Cloudy
1:24 PM 78.1 °F - 66.9 °F 68% 30.14 in 10.0 mi East 8.1 mph - N/A   Mostly Cloudy
1:41 PM 79.0 °F - 66.9 °F 66% 30.13 in 10.0 mi East 6.9 mph - N/A   Overcast
1:53 PM 79.0 °F - 66.9 °F 66% 30.09 in 10.0 mi East 9.2 mph - N/A   Overcast
2:03 PM 80.1 °F 82.3 °F 66.9 °F 64% 30.13 in 10.0 mi Variable 5.8 mph - N/A   Overcast
2:46 PM 80.1 °F 82.3 °F 66.9 °F 64% 30.12 in 10.0 mi SE 6.9 mph - N/A   Overcast
2:53 PM 80.1 °F 82.1 °F 66.0 °F 62% 30.07 in 10.0 mi Variable 4.6 mph - N/A   Overcast
3:25 PM 80.1 °F 82.3 °F 66.9 °F 64% 30.10 in 10.0 mi SE 6.9 mph - N/A   Overcast
3:32 PM 81.0 °F 83.3 °F 66.9 °F 62% 30.10 in 10.0 mi SSE 6.9 mph - N/A   Overcast
3:53 PM 80.1 °F 82.1 °F 66.0 °F 62% 30.05 in 10.0 mi SE 6.9 mph - N/A   Mostly Cloudy
4:53 PM 82.0 °F 84.5 °F 66.9 °F 60% 30.03 in 10.0 mi ESE 4.6 mph - N/A   Clear
5:53 PM 81.0 °F 83.0 °F 66.0 °F 60% 30.03 in 10.0 mi ESE 8.1 mph - N/A   Mostly Cloudy
6:53 PM 80.1 °F 82.7 °F 68.0 °F 67% 30.02 in 10.0 mi East 5.8 mph - N/A   Partly Cloudy
7:53 PM 77.0 °F - 69.1 °F 76% 30.03 in 10.0 mi East 3.5 mph - N/A   Mostly Cloudy
8:53 PM 75.9 °F - 69.1 °F 79% 30.04 in 10.0 mi ESE 3.5 mph - N/A   Overcast
9:53 PM 73.9 °F - 69.1 °F 85% 30.04 in 10.0 mi ESE 4.6 mph - N/A   Clear
10:53 PM 73.0 °F - 69.1 °F 87% 30.04 in 10.0 mi ESE 4.6 mph - N/A   Clear
11:53 PM 72.0 °F - 68.0 °F 87% 30.05 in 10.0 mi ESE 3.5 mph - N/A   Clear